Washington, NC

1:35 PM EDT on April 26, 2018 (GMT -0400)
Warren

Weather History for KOCW - January, 2013

Change the Weather History Date:

Monday, January 28, 2013

  Actual Average (KPGV) Record (KPGV)
Temperature  
Mean Temperature 39 °F -  
Max Temperature 52 °F 52 °F 79 °F (1974)
Min Temperature 26 °F 29 °F 11 °F (1935)
Degree Days  
Heating Degree Days 26    
Moisture  
Dew Point 34 °F    
Average Humidity 77    
Maximum Humidity 83    
Minimum Humidity 66    
Precipitation  
Precipitation 0.00 in - - ()
Sea Level Pressure  
Sea Level Pressure 30.40 in    
Wind  
Wind Speed 1 mph (South)    
Max Wind Speed 9 mph    
Max Gust Speed -    
Visibility 10 miles    
Events Rain    
Averages and records for this station are not official NWS values.
T = Trace of Precipitation, MM = Missing Value Source: NWS Daily Summary

Daily Weather History Graph

Daily Weather History Graph

Search for Another Location

Airport or City:

Astronomy

Jan. 28, 2013 Rise Set
Actual Time 7:10 AM EST 5:32 PM EST
Civil Twilight 6:43 AM EST 5:59 PM EST
Nautical Twilight 6:13 AM EST 6:29 PM EST
Astronomical Twilight 5:42 AM EST 6:59 PM EST
Moon 7:18 PM EST (1/28) 7:40 AM EST (1/28)
Length of Visible Light 11h 15m
Length of Day
10h 21m
Full, 98% of the Moon is Illuminated
Jan 28
Full
Feb 3
Last Quarter
Feb 10
New
Feb 17
First Quarter
Feb 25
Full

Hourly Weather History & Observations

Time (EST) Temp. Windchill Dew Point Humidity Pressure Visibility Wind Dir Wind Speed Gust Speed Precip Events Conditions
12:15 AM 27.5 °F - 22.8 °F 83% 30.53 in 7.0 mi Calm Calm - N/A   Clear
12:35 AM 27.0 °F - 22.1 °F 82% 30.53 in 7.0 mi Calm Calm - N/A   Clear
12:55 AM 26.2 °F - 21.2 °F 81% 30.53 in 10.0 mi Calm Calm - N/A   Clear
1:15 AM 27.5 °F - 22.8 °F 83% 30.53 in 10.0 mi Calm Calm - N/A   Clear
1:35 AM 27.5 °F - 22.8 °F 83% 30.53 in 10.0 mi Calm Calm - N/A   Mostly Cloudy
1:55 AM 27.7 °F - 22.8 °F 82% 30.53 in 10.0 mi Calm Calm - N/A   Overcast
2:15 AM 30.2 °F - 25.2 °F 82% 30.53 in 10.0 mi Calm Calm - N/A   Overcast
2:55 AM 30.2 °F - 25.2 °F 82% 30.51 in 10.0 mi Calm Calm - N/A   Mostly Cloudy
3:15 AM 30.2 °F - 25.2 °F 82% 30.50 in 10.0 mi Calm Calm - N/A   Mostly Cloudy
3:35 AM 31.1 °F - 25.9 °F 81% 30.50 in 10.0 mi Calm Calm - N/A   Overcast
3:55 AM 31.3 °F - 26.2 °F 82% 30.50 in 10.0 mi Calm Calm - N/A   Overcast
4:15 AM 32.5 °F - 27.9 °F 83% 30.49 in 10.0 mi Calm Calm - N/A   Overcast
4:35 AM 32.5 °F - 27.5 °F 82% 30.49 in 10.0 mi Calm Calm - N/A   Overcast
4:55 AM 32.5 °F - 27.5 °F 82% 30.50 in 10.0 mi Calm Calm - N/A   Overcast
5:15 AM 32.5 °F - 27.5 °F 82% 30.50 in 10.0 mi Calm Calm - N/A   Mostly Cloudy
5:35 AM 32.5 °F - 27.5 °F 82% 30.49 in 10.0 mi Calm Calm - N/A   Mostly Cloudy
5:55 AM 32.5 °F - 27.5 °F 82% 30.49 in 10.0 mi Calm Calm - N/A   Overcast
6:15 AM 32.5 °F - 27.5 °F 82% 30.49 in 10.0 mi Calm Calm - N/A   Overcast
6:35 AM 32.5 °F - 27.5 °F 82% 30.49 in 10.0 mi Calm Calm - N/A   Overcast
7:15 AM 33.8 °F - 28.6 °F 81% 30.48 in 10.0 mi Calm Calm - N/A   Overcast
7:35 AM 35.1 °F - 29.3 °F 80% 30.48 in 10.0 mi Calm Calm - N/A   Light Drizzle
7:55 AM 35.1 °F - 28.6 °F 77% 30.48 in 10.0 mi Calm Calm - N/A   Light Drizzle
8:15 AM 35.1 °F - 28.8 °F 78% 30.49 in 10.0 mi Calm Calm - N/A   Light Drizzle
8:35 AM 37.6 °F - 31.1 °F 77% 30.49 in 10.0 mi Calm Calm - N/A Rain Rain
8:55 AM 37.6 °F - 32.0 °F 80% 30.49 in 10.0 mi Calm Calm - N/A   Light Drizzle
9:15 AM 37.6 °F - 31.1 °F 77% 30.49 in 10.0 mi Calm Calm - N/A   Light Drizzle
9:35 AM 37.6 °F - 31.8 °F 80% 30.49 in 10.0 mi Calm Calm - N/A   Light Drizzle
9:55 AM 37.6 °F - 31.5 °F 79% 30.49 in 10.0 mi Calm Calm - N/A   Overcast
10:15 AM 37.6 °F - 31.8 °F 80% 30.49 in 10.0 mi Calm Calm - N/A   Mostly Cloudy
10:35 AM 37.6 °F - 31.8 °F 80% 30.48 in 10.0 mi Calm Calm - N/A   Mostly Cloudy
10:55 AM 38.3 °F - 32.2 °F 79% 30.48 in 10.0 mi Calm Calm - N/A   Mostly Cloudy
11:15 AM 40.1 °F 38.0 °F 33.3 °F 77% 30.47 in 10.0 mi East 3.5 mph - N/A   Mostly Cloudy
11:35 AM 40.1 °F 36.9 °F 32.9 °F 75% 30.45 in 10.0 mi SSE 4.6 mph - N/A   Scattered Clouds
11:55 AM 42.8 °F 40.1 °F 34.7 °F 73% 30.44 in 10.0 mi SE 4.6 mph - N/A   Scattered Clouds
12:15 PM 43.2 °F - 35.1 °F 73% 30.42 in 10.0 mi Calm Calm - N/A   Scattered Clouds
12:35 PM 43.9 °F 41.3 °F 35.1 °F 71% 30.41 in 10.0 mi South 4.6 mph - N/A   Mostly Cloudy
12:55 PM 43.3 °F 40.7 °F 33.8 °F 69% 30.39 in 10.0 mi South 4.6 mph - N/A   Overcast
1:15 PM 45.0 °F 43.5 °F 34.9 °F 68% 30.37 in 10.0 mi SSW 3.5 mph - N/A   Overcast
1:35 PM 45.1 °F 42.8 °F 35.1 °F 68% 30.35 in 10.0 mi SSE 4.6 mph - N/A   Overcast
1:55 PM 46.4 °F 45.2 °F 36.5 °F 68% 30.34 in 10.0 mi South 3.5 mph - N/A   Mostly Cloudy
2:15 PM 48.0 °F - 37.8 °F 68% 30.34 in 10.0 mi SSW 4.6 mph - N/A   Mostly Cloudy
2:35 PM 50.2 °F - 39.4 °F 66% 30.33 in 10.0 mi SSW 4.6 mph - N/A   Mostly Cloudy
2:55 PM 51.6 °F - 41.0 °F 67% 30.32 in 10.0 mi SW 5.8 mph - N/A   Scattered Clouds
3:15 PM 52.7 °F - 41.7 °F 66% 30.31 in 10.0 mi SSW 5.8 mph - N/A   Mostly Cloudy
3:35 PM 52.7 °F - 42.1 °F 67% 30.31 in 10.0 mi South 4.6 mph - N/A   Mostly Cloudy
3:55 PM 52.7 °F - 42.3 °F 68% 30.30 in 10.0 mi SSW 4.6 mph - N/A   Overcast
4:15 PM 52.7 °F - 42.8 °F 69% 30.29 in 10.0 mi South 4.6 mph - N/A   Overcast
4:35 PM 52.7 °F - 43.2 °F 70% 30.29 in 10.0 mi SSW 4.6 mph - N/A   Overcast
5:15 PM 52.7 °F - 43.7 °F 71% 30.29 in 10.0 mi SSW 3.5 mph - N/A   Overcast
5:35 PM 52.7 °F - 44.1 °F 72% 30.29 in 10.0 mi Calm Calm - N/A   Overcast
5:55 PM 52.7 °F - 44.1 °F 72% 30.29 in 10.0 mi Calm Calm - N/A   Overcast
6:15 PM 52.2 °F - 43.9 °F 73% 30.29 in 10.0 mi Calm Calm - N/A   Overcast
6:35 PM 52.0 °F - 44.1 °F 74% 30.29 in 10.0 mi Calm Calm - N/A   Overcast
6:55 PM 48.0 °F - 41.2 °F 77% 30.29 in 10.0 mi Calm Calm - N/A   Mostly Cloudy
7:15 PM 45.9 °F - 39.6 °F 79% 30.29 in 10.0 mi Calm Calm - N/A   Scattered Clouds
7:35 PM 45.5 °F - 39.7 °F 80% 30.29 in 10.0 mi Calm Calm - N/A   Mostly Cloudy
7:55 PM 47.1 °F - 41.2 °F 80% 30.28 in 10.0 mi Calm Calm - N/A   Overcast
8:15 PM 47.7 °F - 41.5 °F 79% 30.28 in 10.0 mi Calm Calm - N/A   Overcast
8:35 PM 46.2 °F - 40.6 °F 81% 30.27 in 10.0 mi Calm Calm - N/A   Mostly Cloudy
8:55 PM 45.1 °F - 39.6 °F 81% 30.27 in 10.0 mi Calm Calm - N/A   Clear
9:15 PM 42.8 °F - 37.2 °F 81% 30.26 in 10.0 mi Calm Calm - N/A   Clear
9:35 PM 43.9 °F - 38.3 °F 81% 30.27 in 10.0 mi Calm Calm - N/A   Clear
9:55 PM 42.8 °F - 37.4 °F 81% 30.26 in 10.0 mi Calm Calm - N/A   Clear
10:15 PM 42.8 °F - 37.4 °F 81% 30.25 in 10.0 mi Calm Calm - N/A   Clear
10:35 PM 42.8 °F - 37.4 °F 81% 30.25 in 7.0 mi Calm Calm - N/A   Clear
10:55 PM 42.8 °F - 37.4 °F 81% 30.24 in 7.0 mi Calm Calm - N/A   Clear
11:15 PM 43.7 °F - 38.3 °F 81% 30.24 in 7.0 mi Calm Calm - N/A   Clear
11:35 PM 46.6 °F - 41.2 °F 81% 30.24 in 3.0 mi SW 5.8 mph - N/A   Haze
11:55 PM 51.1 °F - 45.3 °F 81% 30.24 in 3.0 mi SW 9.2 mph - N/A   Haze